Regional Weather Roundup
Issued by NWS

Home | Current Version | Previous Version | Graphics & Text | Print | Product List | Glossary On
Versions: 1 2 3 4 5 6 7 8 9 10 11 12 13 14 15 16 17 18 19 20 21 22 23 24 25 26 27
000
ASUS45 KSLC 201510
RWRUT

UTAH REGIONAL WEATHER ROUNDUP
NATIONAL WEATHER SERVICE SALT LAKE CITY UT
800 AM MST TUE FEB 20 2018

UTZ001>011-023>025-201600-

NORTHERN UTAH

CITY           SKY/WX    TMP DP  RH WIND       PRES   REMARKS
BRIGHAM CITY   PTCLDY    13   6  73 CALM      30.02R
HILL AFB       LGT SNOW  16  12  86 NW3       29.98R FOG
LOGAN          FLURRIES  16   8  71 N8        29.99R WCI   5
OGDEN          LGT SNOW  17  11  77 CALM      29.99R
SALT LAKE CITY FLURRIES  21  16  81 SE5       30.01R WCI  15
TOOELE VALLEY  CLOUDY    14  10  85 CALM      30.02R
WENDOVER       MOCLDY    17   8  67 S6        30.04R WCI   9
HEBER CITY     SNOW       5   1  85 CALM      29.91R VSB 1/4
WEST JORDAN    CLOUDY    14  14  98 CALM      30.00R

$$

UTZ011>015-024>027-201600-

CENTRAL/NORTHEAST UTAH

CITY           SKY/WX    TMP DP  RH WIND       PRES   REMARKS
PROVO AIRPORT  CLOUDY    19  16  88 S5        30.01R WCI  12
MOAB/CANYONLAN PTCLDY   N/A N/A N/A W3        29.92R
DELTA          CLOUDY     9   7  92 CALM      30.00R
PRICE          CLEAR     11   0  61 E5        29.87R WCI   3
RICHFIELD      PTCLDY    12  12 100 N3        29.97R
VERNAL         CLOUDY     2  -2  83 NW3       29.96R FOG

$$

UTZ013>016-019>022-027-201600-

SOUTHERN UTAH

CITY           SKY/WX    TMP DP  RH WIND       PRES   REMARKS
BRYCE CANYON   PTCLDY    -2  -5  87 W7        29.85R WCI -15
CEDAR CITY     MOCLDY    12  10  92 SE8       29.94R WCI   0
MILFORD        CLOUDY    10   8  92 SW5       29.97R WCI   2
ST GEORGE      MOSUNNY   28  21  75 CALM      30.05R
HANKSVILLE     PTCLDY    19   5  53 CALM      29.98R
KANAB          CLEAR     19  12  73 CALM      30.01R
BLANDING         N/A     17  10  75 NE5       29.97R WCI  10

$$

REGIONAL REPORTS     COLORADO/ARIZONA

CITY           SKY/WX    TMP DP  RH WIND       PRES   REMARKS
CRAIG, CO      CLOUDY    -6 -10  83 CALM      29.91R FOG
GRAND JUNCTION CLOUDY    18  16  92 CALM      29.93R
RIFLE, CO      FOG       14  11  87 CALM      29.91R VSB 1
MONTROSE, CO   LGT SNOW  17  16  95 CALM      29.92R FOG
CORTEZ, CO     SUNNY     10   6  84 E6        29.93R WCI   0
COLORADO CITY    N/A     19  18  93 CALM      30.00R
PAGE, AZ       CLEAR     26  12  55 VRB3      29.96R
GRAND CANYON   PTCLDY    -5  -8  87 CALM      29.92R
KINGMAN, AZ    CLEAR     23  11  60 CALM      30.03R
FLAGSTAFF, AZ  CLEAR      6   4  91 CALM      29.90R

$$

REGIONAL REPORTS    NEVADA/IDAHO/WYOMING

CITY           SKY/WX    TMP DP  RH WIND       PRES   REMARKS
LAS VEGAS, NV  CLEAR     35   6  29 S6        30.08R WCI  30
ELY, NY        PTCLDY     1  -3  83 S3        29.94R
ELKO, NV       CLOUDY    13   7  77 SW9       30.00R WCI   1
POCATELLO, ID  LGT SNOW  10   5  80 SW16      30.01R WCI  -7
BURLEY, ID     PTCLDY     8  -1  66 SW12      30.04R WCI  -7
FORT BRIDGER,    N/A      0  -4  85 W7        29.84  WCI -13
EVANSTON, WY   PTCLDY     1  -3  83 SW8       29.81R WCI -13
ROCK SPRINGS,  PTCLDY    -6 -11  79 CALM      29.83R

$$




USA.gov is the U.S. government's official web portal to all federal, state and local government web resources and services.